Flag for Germany Weather past 2 weeks in Laatzen, Lower Saxony, Germany

Now
59 °F

Passing clouds.


Feels Like: 59 °F
Forecast: 49 / 61 °F
Wind: 3 mph from East

Location: Hannover


UV Index: 0 (Low)

Visibility: 19 mi


Pressure: 29.82 "Hg

Humidity: 60%

Dew point: 45 °F

Location of LaatzenLocation

Historic Weather in Laatzen

°F

Laatzen temperature yesterday

Maximum temperature yesterday: 63 °F (at 6:00 PM)
Minimum temperature yesterday: 36 °F (at 7:00 AM)
Average temperature yesterday: 48 °F

Past Weeks' High & Low Weather Summary

 TemperatureHumidityPressure
High68 °F (Apr 7, 4:00 PM)100% (Apr 5, 10:00 PM)30.48 "Hg (Apr 5, 10:00 PM)
Low29 °F (Apr 16, 6:00 AM)32% (Apr 17, 4:00 PM)29.73 "Hg (Apr 8, 6:00 AM)
Average50 °F79%30.06 "Hg
* Reported Apr 5 9:00 PM — Apr 20 9:00 PM, Laatzen, Weather by CustomWeather, © 2014

Note: Actual official high and low records may vary slightly from our data, if they occured in-between our weather recording intervals... More about our weather records

Advertising

Historic Weather Conditions — Data for Previous 24 hours

 ConditionsComfort  
Time TempWeatherWind HumidityBarometerVisibility
9:00 PM
Apr 20
59 °FPassing clouds.3 mph60%29.82 "Hg19 mi
8:00 PM65 °FPartly sunny.6 mph47%29.80 "Hg19 mi
7:00 PM67 °FScattered clouds.8 mph40%29.80 "Hg19 mi
6:00 PM66 °FScattered clouds.8 mph42%29.80 "Hg19 mi
4:00 PM67 °FScattered clouds.9 mph46%29.81 "Hg19 mi
3:00 PM66 °FScattered clouds.8 mph53%29.83 "Hg19 mi
2:00 PM66 °FScattered clouds.9 mph54%29.84 "Hg19 mi
1:00 PM63 °FPartly sunny.10 mph64%29.86 "Hg19 mi
12:00 PM62 °FPartly sunny.8 mph63%29.88 "Hg19 mi
11:00 AM61 °FPassing clouds.7 mph72%29.89 "Hg19 mi
10:00 AM56 °FScattered clouds.N/A78%29.89 "Hg16 mi
9:00 AM51 °FScattered clouds.N/A87%29.91 "Hg11 mi
8:00 AM47 °FScattered clouds.3 mph95%29.91 "Hg9 mi
7:00 AM44 °FFog.2 mph98%29.92 "Hg6 mi
6:00 AM44 °FFog.2 mph97%29.92 "Hg5 mi
5:00 AM45 °FPassing clouds.1 mph97%29.94 "Hg5 mi
4:00 AM45 °FPassing clouds.2 mph97%29.95 "Hg5 mi
3:00 AM47 °FPassing clouds.1 mph95%29.96 "Hg6 mi
2:00 AM49 °FClear.1 mph88%29.98 "Hg6 mi
1:00 AM52 °FPassing clouds.5 mph85%29.98 "Hg6 mi
12:00 AM54 °FOvercast.5 mph82%30.00 "Hg6 mi
11:00 PM
Apr 19
55 °FPassing clouds.6 mph81%30.01 "Hg6 mi
10:00 PM55 °FPassing clouds.5 mph82%30.01 "Hg6 mi
Weather by CustomWeather, © 2014

See weather overview